Regional Weather Roundup
Issued by NWS Bismarck, ND

Home | Current Version | Previous Version | Text Only | Print | Product List | Glossary On
Versions: 1 2 3 4 5 6 7 8 9 10 11 12 13 14 15 16 17 18 19 20 21 22 23 24 25 26 27 28 29 30 31 32 33 34 35 36 37 38 39 40 41 42 43 44 45 46 47 48 49 50
226
ASUS43 KBIS 060110
RWRBIS

NWR BROADCAST TEXT
NATIONAL WEATHER SERVICE BISMARCK ND
700 PM CST MON DEC 05 2016

NOTE: "FAIR" INDICATES FEW OR NO CLOUDS BELOW 12,000 FEET WITH NO
SIGNIFICANT WEATHER AND/OR OBSTRUCTIONS TO VISIBILITY.


CITY           SKY/WX    TMP DP  RH WIND       PRES   REMARKS
WILLISTON      LGT SNOW  11   6  81 NW29G41   29.85R VSB 3/4 WCI -11
MINOT          FRZ RAIN  23  20  88 W20       29.63S FOG     WCI   8
MINOT AFB      LGT SNOW  23  19  86 NW22      29.62S VSB 3/4 WCI   8
BISMARCK       LGT SNOW  17  13  84 NW23G40   29.69R FOG     WCI  -1
DICKINSON      LGT SNOW   8   3  80 NW33G43   29.78R WCI -16
GARRISON         N/A     16  12  84 NW33G46   29.66S WCI  -5
HETTINGER ARPT MIX PCPN   8   3  80 NW32G41   29.80S WCI -16
JAMESTOWN      LGT SNOW  27  25  92 N13       29.52F VSB 3/4 WCI  16
BEACH          LGT SNOW   7   3  85 NW30G37   29.91R WCI -17
CARRINGTON     SNOW      23  23 100 NW17      29.58S VSB 1/2 WCI   9
HAZEN          LGT SNOW  16   9  73 W25G35    29.76R WCI  -3
RUGBY          LGT SNOW  23  23 100 NW6       29.61S WCI  16
STANLEY        LGT SNOW  14  16 100 NW28G36   29.72R VSB 3/4 WCI  -6
TIOGA          HVY SNOW  12  12 100 NW35G45   29.77R VSB 1/4 WCI -10
WATFORD CITY   SNOW      10   7  85 NW23G37   29.83R VSB 1/2 WCI -10
$$

CITY           SKY/WX    TMP DP  RH WIND       PRES   REMARKS
GRAND FORKS    FLURRIES  31  27  85 NE16      29.56F WCI  20
GRAND FORKS AF LGT SNOW  30  27  86 NE14      29.56F FOG     WCI  20
DEVILS LAKE    LGT SNOW  26  26 100 NE12      29.58S FOG     WCI  16
FARGO          FLURRIES  34  30  85 NE8       29.47F
CANDO          LGT SNOW  27  27 100 NE12      29.62S WCI  16
CAVALIER         N/A     30  28  93 NE9       29.65S
GRAFTON        MOCLDY    30  28  93 NE13G22   29.62F
GWINNER        CLOUDY    34  34 100 W10       29.46F
LANGDON          N/A    N/A N/A N/A MISG      29.61F
ROLLA          LGT SNOW  25  25 100 NE8       29.62S WCI  16
WALHALLA         N/A     28  28 100 NE9       29.66F WCI  20
$$

CITY           SKY/WX    TMP DP  RH WIND       PRES   REMARKS
ABERDEEN       CLOUDY    28  21  75 NW26G38   29.60R WCI  13
MOBRIDGE       LGT SNOW  20  13  74 NW32G43   29.71R WCI   1
BUFFALO          N/A     11   6  81 NW28G40   29.76R WCI -10
RAPID CITY     MOCLDY    19  13  77 N17       29.85R WCI   4
GLASGOW        MOCLDY     6  -3  66 W22       30.03S WCI -15
SIDNEY         LGT SNOW  10   5  79 NW30G37   29.90R WCI -12
WOLF POINT     CLOUDY    11   1  64 NW26G37   30.00S WCI -10
GLENDIVE       FLURRIES   9   2  73 NW26G33   29.95R WCI -13
MILES CITY     CLOUDY    11   1  64 NW16      30.01R WCI  -6
BAKER          SNOW       8   4  83 NW29G38   29.90R VSB 1/2 WCI -15
$$

CITY           SKY/WX    TMP DP  RH WIND       PRES   REMARKS
BILLINGS       CLOUDY    20   5  52 N6        29.99R WCI  12
GREAT FALLS    CLOUDY     9   3  77 NW9       30.07R WCI  -4
REGINA         LGT SNOW  12   9  85 NW23G30   29.91R BLWGSNOWWCI  -7
ESTEVAN        SNOW      16  14  93 NW26G36   29.77R VSB 1/2 WCI  -3
$$





USA.gov is the U.S. government's official web portal to all federal, state and local government web resources and services.